Regional Weather Roundup
Issued by NWS

Home | Current Version | Previous Version | Text Only | Print | Product List | Glossary On
Versions: 1 2 3 4 5 6 7 8 9 10 11 12 13 14 15 16 17 18 19 20 21 22 23 24 25 26 27 28 29 30 31 32 33 34 35 36 37 38 39 40 41 42 43 44 45 46 47 48 49 50
293
ASUS45 KPSR 231910
RWRAZ

ARIZONA HOURLY REGIONAL WEATHER ROUNDUP
NATIONAL WEATHER SERVICE PHOENIX AZ
1200 PM MST SAT JUL 23 2016

NOTE: FAIR INDICATES FEW OR NO CLOUDS BELOW 12,000 FEET WITH NO
SIGNIFICANT WEATHER AND/OR OBSTRUCTIONS TO VISIBILITY.

AZZ001>003-036-232000-
NORTHWEST ARIZONA

CITY           SKY/WX    TMP DP  RH WIND       PRES   REMARKS
BULLHEAD CITY  SUNNY    109  39   9 S14       29.80F HX 103
KINGMAN        SUNNY    100  41  13 SW17      30.04S
$$

AZZ004>008-015-016-018-232000-
NORTH CENTRAL ARIZONA

CITY           SKY/WX    TMP DP  RH WIND       PRES   REMARKS
GRAND CANYON   MOSUNNY   89  39  17 CALM      30.30F
WILLIAMS       SUNNY     84  41  21 NW8G15    30.39F
PRESCOTT       MOSUNNY   90  47  22 W7        30.18F
FLAGSTAFF      MOSUNNY   80  46  30 S3        30.33F
PAYSON         MOSUNNY   93  46  20 W8G18     30.19F
PAGE           SUNNY     97  43  15 VRB5      30.07F
$$

AZZ009>014-017-232000-
NORTHEAST ARIZONA

CITY           SKY/WX    TMP DP  RH WIND       PRES   REMARKS
WINSLOW        SUNNY     96  46  18 NE7       30.15F
SAINT JOHNS    SUNNY     90  45  21 W8        30.20F
SHOW LOW       SUNNY     82  43  24 NE3       30.29F
$$

AZZ023-232000-
GREATER PHOENIX AREA

CITY           SKY/WX    TMP DP  RH WIND       PRES   REMARKS
PHOENIX        PTSUNNY  103  56  21 W14G23    29.86F HX 102
BUCKEYE        SUNNY    104  55  20 SW8       29.88F HX 103
GLENDALE       MOSUNNY  106  57  20 SW10      29.87F HX 105
LUKE AFB       SUNNY    104  59  22 W9        29.85F HX 105
DEER VALLEY    SUNNY    101  56  22 MISG      29.88F HX 100
SCOTTSDALE     SUNNY    102  55  20 W10       29.90F HX 100
MESA-FALCON    MOSUNNY  N/A N/A N/A W7        29.86F
MESA-GATEWAY   MOSUNNY  100  55  22 MISG      29.90F
CHANDLER       SUNNY    104  57  21 S6        29.88F HX 103
$$

AZZ027-028-232000-
SOUTHWEST MARICOPA COUNTY AND PINAL COUNTY

CITY           SKY/WX    TMP DP  RH WIND       PRES   REMARKS
CASA GRANDE    SUNNY    102  57  22 N8        29.92F HX 101
GILA BEND      FAIR     106  52  16 SW15      29.84F HX 103
$$

AZZ503-504-507>509-232000-
SOUTHEAST ARIZONA

CITY           SKY/WX    TMP DP  RH WIND       PRES   REMARKS
TUCSON         SUNNY     99  57  24 NW7       30.00F
DAVIS-MONTHAN  MOSUNNY   98  57  25 W8        29.99F
RYAN FIELD     SUNNY     99  55  23 W8        29.99F
NOGALES        SUNNY     92  57  30 VRB5      30.10F
SIERRA VISTA   SUNNY     92  55  28 NE9       30.16F
DOUGLAS        SUNNY     91  60  35 MISG      30.10F
SAFFORD        SUNNY    100  51  19 W18G24    29.97F
$$

AZZ020-021-025-026-031-232000-
SOUTHWEST ARIZONA

CITY           SKY/WX    TMP DP  RH WIND       PRES   REMARKS
YUMA           MOSUNNY  104  64  27 S15       29.80F HX 107
$$

CAZ031-033-041-043-047-048-061-232000-
SOUTHERN CALIFORNIA

CITY           SKY/WX    TMP DP  RH WIND       PRES   REMARKS
DOWNTOWN L.A.  SUNNY     93  60  33 CALM      29.79F
L.A. AIRPORT   PTSUNNY   82  63  52 W12       29.81F
SAN DIEGO      CLOUDY    68  65  90 S15       29.87R
BURBANK        SUNNY     93  47  20 VRB3      29.82F SMOKE
ONTARIO        MOSUNNY  102  41  12 S6        29.83F
RIVERSIDE      SUNNY    103  46  14 CALM      29.82F
PALM SPRINGS   SUNNY    100  65  31 E8        29.84F HX 103
EL CENTRO NAS  MOSUNNY  101  68  34 VRB3      29.78F HX 106
IMPERIAL       CLOUDY   104  72  35 E3        29.76F HX 114
BLYTHE         CLOUDY   103  63  27 S16       29.82F HX 105
NEEDLES        SUNNY    109  55  17 SW13G21   29.83F HX 108
$$

NVZ020-UTZ003-232000-
SOUTHERN NEVADA-UTAH

CITY           SKY/WX    TMP DP  RH WIND       PRES   REMARKS
LAS VEGAS      MOSUNNY  106  24   5 VRB5      29.85F
SALT LAKE CITY MOSUNNY   89  29  11 NW5       30.12F
$$

NMZ009-TXZ055-232000-
NEW MEXICO-WEST TEXAS

CITY           SKY/WX    TMP DP  RH WIND       PRES   REMARKS
ALBUQUERQUE    MOSUNNY   92  44  19 VRB3      30.14F
EL PASO        MOSUNNY   99  46  16 S8        30.03F
$$


........................KEY........................
SKY/WX - SKY CONDITION/WEATHER
TMP    - TEMPERATURE IN FAHRENHEIT
DP     - DEW POINT IN FAHRENHEIT
RH     - RELATIVE HUMIDITY IN PERCENT
WIND   - DIRECTION AND SPEED IN MILES PER HOUR (MPH)
VRB    - VARIABLE WIND DIRECTION
PRES   - MEAN SEA LEVEL PRESSURE IN INCHES OF MERCURY
         F - FALLING PRESSURE   R - RISING PRESSURE
         S - STEADY PRESSURE
VSB    - VISIBILITY IN MILES
HX     - HEAT INDEX IN FAHRENHEIT
WCI    - WIND CHILL INDEX IN FAHRENHEIT
TC     - TEMPERATURE IN CELSIUS WHICH IS ALSO KNOWN AS
         TEMPERATURE IN CENTIGRADE
AFB    - AIR FORCE BASE
         LUKE AFB IS LUKE AIR FORCE BASE
         DAVIS-MONTHAN IS DAVIS-MONTHAN AIR FORCE BASE
NAS    - NAVAL AIR STATION
         EL CENTRO NAS IS EL CENTRO NAVAL AIR STATION
N/A    - NOT AVAILABLE





USA.gov is the U.S. government's official web portal to all federal, state and local government web resources and services.